TimeEDT,TemperatureF,Dew PointF,Humidity,Sea Level PressureIn,VisibilityMPH,Wind Direction,Wind SpeedMPH,Gust SpeedMPH,PrecipitationIn,Events,Conditions,WindDirDegrees,DateUTC
12:12 AM,68.0,46.4,46,30.14,10.0,East,5.8,-,N/A,,Clear,80,2013-09-06 04:12:00
12:32 AM,68.0,46.4,46,30.15,10.0,East,3.5,-,N/A,,Clear,80,2013-09-06 04:32:00
12:52 AM,66.2,46.4,49,30.15,10.0,East,5.8,-,N/A,,Clear,80,2013-09-06 04:52:00
1:12 AM,66.2,46.4,49,30.15,10.0,NE,4.6,-,N/A,,Clear,50,2013-09-06 05:12:00
1:32 AM,66.2,46.4,49,30.15,10.0,NE,5.8,-,N/A,,Clear,40,2013-09-06 05:32:00
1:52 AM,66.2,46.4,49,30.16,10.0,Calm,Calm,-,N/A,,Clear,0,2013-09-06 05:52:00
2:13 AM,64.4,46.4,52,30.17,10.0,NE,5.8,-,N/A,,Clear,40,2013-09-06 06:13:00
2:33 AM,64.4,46.4,52,30.17,10.0,NNE,4.6,-,N/A,,Clear,20,2013-09-06 06:33:00
2:53 AM,64.4,46.4,52,30.18,10.0,NNE,8.1,-,N/A,,Clear,20,2013-09-06 06:53:00
3:13 AM,62.6,46.4,55,30.18,10.0,NNE,8.1,-,N/A,,Clear,20,2013-09-06 07:13:00
3:33 AM,62.6,46.4,55,30.18,10.0,NE,11.5,-,N/A,,Clear,40,2013-09-06 07:33:00
3:53 AM,62.6,46.4,55,30.18,10.0,NNE,8.1,-,N/A,,Clear,20,2013-09-06 07:53:00
4:13 AM,62.6,46.4,55,30.18,10.0,NNE,6.9,-,N/A,,Clear,30,2013-09-06 08:13:00
4:33 AM,62.6,44.6,52,30.18,10.0,NNE,6.9,-,N/A,,Clear,30,2013-09-06 08:33:00
4:53 AM,60.8,44.6,55,30.19,10.0,NNE,6.9,-,N/A,,Clear,20,2013-09-06 08:53:00
5:13 AM,60.8,44.6,55,30.19,10.0,NNE,5.8,-,N/A,,Clear,30,2013-09-06 09:13:00
5:33 AM,60.8,44.6,55,30.20,10.0,NE,8.1,-,N/A,,Clear,40,2013-09-06 09:33:00
5:53 AM,60.8,44.6,55,30.20,10.0,NNE,6.9,-,N/A,,Clear,30,2013-09-06 09:53:00
6:13 AM,60.8,44.6,55,30.21,10.0,NNE,9.2,-,N/A,,Clear,20,2013-09-06 10:13:00
6:33 AM,59.0,44.6,59,30.22,10.0,NNE,8.1,-,N/A,,Clear,30,2013-09-06 10:33:00
6:53 AM,59.0,44.6,59,30.22,10.0,NNE,5.8,-,N/A,,Clear,30,2013-09-06 10:53:00
7:13 AM,59.0,44.6,59,30.23,10.0,NE,8.1,-,N/A,,Clear,40,2013-09-06 11:13:00
7:33 AM,59.0,44.6,59,30.24,10.0,NNE,9.2,-,N/A,,Clear,30,2013-09-06 11:33:00
7:53 AM,60.8,42.8,52,30.25,10.0,NNE,6.9,-,N/A,,Clear,20,2013-09-06 11:53:00
8:13 AM,60.8,42.8,52,30.25,10.0,NE,5.8,-,N/A,,Clear,40,2013-09-06 12:13:00
8:33 AM,60.8,42.8,52,30.25,10.0,NNE,9.2,-,N/A,,Clear,20,2013-09-06 12:33:00
8:53 AM,62.6,42.8,48,30.25,10.0,NNE,10.4,-,N/A,,Clear,20,2013-09-06 12:53:00
9:13 AM,62.6,41.0,45,30.25,10.0,North,8.1,-,N/A,,Clear,10,2013-09-06 13:13:00
9:33 AM,64.4,42.8,45,30.25,10.0,NNE,4.6,-,N/A,,Clear,30,2013-09-06 13:33:00
9:53 AM,64.4,41.0,42,30.26,10.0,North,6.9,-,N/A,,Clear,10,2013-09-06 13:53:00
10:13 AM,64.4,41.0,42,30.26,10.0,NNE,5.8,-,N/A,,Clear,30,2013-09-06 14:13:00
10:34 AM,66.2,41.0,40,30.25,10.0,North,6.9,-,N/A,,Clear,10,2013-09-06 14:34:00
10:54 AM,68.0,41.0,37,30.26,10.0,NNE,5.8,-,N/A,,Clear,30,2013-09-06 14:54:00
11:14 AM,68.0,41.0,37,30.26,10.0,North,8.1,-,N/A,,Clear,360,2013-09-06 15:14:00
11:34 AM,68.0,42.8,40,30.26,10.0,North,6.9,-,N/A,,Clear,350,2013-09-06 15:34:00
11:54 AM,68.0,42.8,40,30.25,10.0,North,8.1,-,N/A,,Clear,350,2013-09-06 15:54:00
12:14 PM,68.0,44.6,43,30.25,10.0,North,8.1,-,N/A,,Clear,360,2013-09-06 16:14:00
12:34 PM,69.8,44.6,40,30.25,10.0,North,8.1,-,N/A,,Clear,350,2013-09-06 16:34:00
12:54 PM,69.8,46.4,43,30.24,10.0,North,8.1,-,N/A,,Clear,350,2013-09-06 16:54:00
1:14 PM,69.8,44.6,40,30.24,10.0,NNW,6.9,-,N/A,,Clear,330,2013-09-06 17:14:00
1:34 PM,69.8,44.6,40,30.23,10.0,NNW,8.1,-,N/A,,Clear,340,2013-09-06 17:34:00
1:54 PM,69.8,46.4,43,30.23,10.0,NW,8.1,-,N/A,,Clear,320,2013-09-06 17:54:00
2:14 PM,69.8,44.6,40,30.22,10.0,NNW,6.9,-,N/A,,Clear,340,2013-09-06 18:14:00
2:34 PM,71.6,44.6,38,30.21,10.0,NW,5.8,-,N/A,,Clear,320,2013-09-06 18:34:00
2:54 PM,71.6,44.6,38,30.20,10.0,NNW,5.8,-,N/A,,Clear,340,2013-09-06 18:54:00
3:14 PM,71.6,44.6,38,30.19,10.0,NNW,4.6,-,N/A,,Clear,340,2013-09-06 19:14:00
3:34 PM,73.4,42.8,33,30.18,10.0,Calm,Calm,-,N/A,,Clear,0,2013-09-06 19:34:00
3:54 PM,73.4,42.8,33,30.17,10.0,ENE,4.6,-,N/A,,Clear,70,2013-09-06 19:54:00
4:14 PM,73.4,44.6,36,30.17,10.0,East,4.6,-,N/A,,Clear,90,2013-09-06 20:14:00
4:34 PM,73.4,42.8,33,30.17,10.0,East,4.6,-,N/A,,Clear,80,2013-09-06 20:34:00
4:54 PM,73.4,42.8,33,30.16,10.0,Calm,Calm,-,N/A,,Clear,0,2013-09-06 20:54:00
5:14 PM,73.4,42.8,33,30.16,10.0,Calm,Calm,-,N/A,,Clear,0,2013-09-06 21:14:00
5:34 PM,73.4,42.8,33,30.16,10.0,ENE,3.5,-,N/A,,Clear,60,2013-09-06 21:34:00
5:54 PM,73.4,42.8,33,30.15,10.0,North,3.5,-,N/A,,Clear,10,2013-09-06 21:54:00
6:14 PM,71.6,42.8,35,30.15,10.0,East,3.5,-,N/A,,Clear,100,2013-09-06 22:14:00
6:34 PM,71.6,42.8,35,30.15,10.0,NE,3.5,-,N/A,,Clear,40,2013-09-06 22:34:00
6:54 PM,71.6,44.6,38,30.15,10.0,Calm,Calm,-,N/A,,Clear,0,2013-09-06 22:54:00
7:15 PM,69.8,44.6,40,30.15,10.0,Calm,Calm,-,N/A,,Clear,0,2013-09-06 23:15:00
7:35 PM,68.0,44.6,43,30.15,10.0,Calm,Calm,-,N/A,,Clear,0,2013-09-06 23:35:00
7:55 PM,66.2,46.4,49,30.15,10.0,Calm,Calm,-,N/A,,Clear,0,2013-09-06 23:55:00
8:15 PM,64.4,46.4,52,30.16,10.0,Calm,Calm,-,N/A,,Clear,0,2013-09-07 00:15:00
8:35 PM,64.4,46.4,52,30.16,10.0,Calm,Calm,-,N/A,,Clear,0,2013-09-07 00:35:00
8:55 PM,64.4,46.4,52,30.17,10.0,NE,3.5,-,N/A,,Clear,40,2013-09-07 00:55:00
9:15 PM,66.2,46.4,49,30.17,10.0,ENE,3.5,-,N/A,,Clear,70,2013-09-07 01:15:00
9:35 PM,64.4,46.4,52,30.17,10.0,Calm,Calm,-,N/A,,Clear,0,2013-09-07 01:35:00
9:55 PM,64.4,48.2,56,30.16,10.0,Calm,Calm,-,N/A,,Clear,0,2013-09-07 01:55:00
10:15 PM,64.4,48.2,56,30.16,10.0,Calm,Calm,-,N/A,,Clear,0,2013-09-07 02:15:00
10:35 PM,64.4,46.4,52,30.17,10.0,East,4.6,-,N/A,,Clear,80,2013-09-07 02:35:00
10:55 PM,62.6,50.0,63,30.16,10.0,East,3.5,-,N/A,,Clear,100,2013-09-07 02:55:00
11:15 PM,62.6,51.8,68,30.16,10.0,ESE,3.5,-,N/A,,Clear,120,2013-09-07 03:15:00
11:35 PM,62.6,53.6,72,30.15,10.0,ESE,4.6,-,N/A,,Clear,120,2013-09-07 03:35:00
11:55 PM,62.6,55.4,77,30.15,10.0,ESE,3.5,-,N/A,,Clear,110,2013-09-07 03:55:00